Location: Newark
(51.0500°N, 12.4500°E)
Time: 09:33:46
(UTC+00:00)

Vanguard 1 - Pass Details

Date: 27 February 2020
Orbit: 649 x 3833 km, 34.2° (Epoch: 07 April)

Event Time Altitude Azimuth Distance (km) Brightness Sun altitude
Rises 02:56:28 0° 180° (S) 7,588 14.4 -29.1°
Reaches altitude 10° 03:05:02 10° 163° (SSE) 6,860 14.3 -27.9°
Maximum altitude 03:16:19 16° 133° (SE) 6,363 14.4 -26.3°
Drops below altitude 10° 03:27:03 10° 104° (ESE) 6,563 15.0 -24.7°
Sets 03:34:38 0° 86° (E) 7,132 15.8 -23.5°
